Flag for Colombia Weather past 2 weeks in Cúcuta, Colombia

Now
93 °F

Passing clouds.


Feels Like: 98 °F
Forecast: 76 / 93 °F
Wind: N/A

Location: San Antonio Del Tachira Airport

Current Time: Aug 28, 2015 at 3:16:52 PM

Latest Report: Aug 28, 2015 at 3:00 PM


Visibility: N/A

Pressure: 29.83 "Hg

Humidity: 44%

Dew point: 68 °F

Location of CúcutaLocation

Historic Weather in Cúcuta — Graph

°F

Cúcuta temperature yesterday

Maximum temperature yesterday: 95 °F (at 1:00 PM)
Minimum temperature yesterday: 77 °F (at 7:00 AM)
Average temperature yesterday: 86 °F

Past Weeks' High & Low Weather Summary

 TemperatureHumidityPressure
High99 °F (Aug 24, 3:00 PM)94% (Aug 17, 7:00 PM)30.01 "Hg (Aug 17, 7:00 PM)
Low75 °F (Aug 22, 6:00 AM)28% (Aug 23, 11:00 AM)29.80 "Hg (Aug 21, 4:00 PM)
Average86 °F57%29.91 "Hg
* Reported Aug 13 2:00 PM — Aug 28 2:00 PM, Cúcuta, Weather by CustomWeather, © 2015

Note: Actual official high and low records may vary slightly from our data, if they occured in-between our weather recording intervals... More about our weather records

Advertising

Cúcuta weather history for previous 24 hours

 ConditionsComfort  
Time TempWeatherWind HumidityBarometerVisibility
2:00 PM
Fri, Aug 28
95 °FPassing clouds.N/A44%29.86 "HgN/A
1:00 PM95 °FPassing clouds.N/A41%29.92 "HgN/A
12:00 PM95 °FPassing clouds.N/A41%29.89 "HgN/A
11:00 AM91 °FPassing clouds.N/A46%29.89 "HgN/A
10:00 AM91 °FPassing clouds.N/A46%29.92 "HgN/A
9:00 AM88 °FPassing clouds.N/A52%29.92 "HgN/A
8:00 AM86 °FScattered clouds.N/A55%29.95 "HgN/A
7:00 AM81 °FScattered clouds.N/A66%29.92 "HgN/A
6:00 AM81 °FPartly sunny.N/A66%29.92 "HgN/A
5:00 AM82 °FPartly sunny.N/A62%29.92 "HgN/A
4:00 AM84 °FPassing clouds.N/A55%29.89 "HgN/A
10:00 PM
Thu, Aug 27
82 °FPassing clouds.N/A62%29.95 "HgN/A
9:00 PM81 °FPassing clouds.N/A66%29.95 "HgN/A
8:00 PM84 °FPassing clouds.N/A58%29.95 "HgN/A
6:00 PM86 °FPassing clouds.N/A66%29.86 "HgN/A
5:00 PM91 °FPassing clouds.N/A52%29.86 "HgN/A
4:00 PM95 °FPartly sunny.N/A50%29.86 "HgN/A
3:00 PM95 °FPartly sunny.N/A50%29.86 "HgN/A
Weather by CustomWeather, © 2015

See weather overviewHow to use our weather pages